[keps] orb06341.amsat

Ray Hoad r.hoad at att.net
Thu Dec 7 17:48:07 PST 2006


SB KEPS @ AMSAT  $ORB06341.O
Orbital Elements  06341.OSCAR

HR AMSAT ORBITAL ELEMENTS FOR OSCAR SATELLITES
FROM WA5QGD FORT WORTH,TX December 7, 2006
Send SUBSCRIBE KEPS/UNSUBSCRIBE KEPS to majordomo at amsat.org only
BID: ORB06341.O
TO ALL RADIO AMATEURS BT

Satellite: AO-07
Catalog number: 07530
Epoch time:      06340.64830627
Element set:     747
Inclination:      101.5458 deg
RA of node:       019.1176 deg
Eccentricity:    0.0011973
Arg of perigee:   271.0797 deg
Mean anomaly:     088.8902 deg
Mean motion:   12.53571891 rev/day
Decay rate:       -2.8e-07 rev/day^2
Epoch rev:           46699
Checksum:              325

Satellite: UO-11
Catalog number: 14781
Epoch time:      06340.64834882
Element set:    0243
Inclination:      098.2015 deg
RA of node:       354.5028 deg
Eccentricity:    0.0010119
Arg of perigee:   072.8942 deg
Mean anomaly:     287.3348 deg
Mean motion:   14.79493592 rev/day
Decay rate:        2.9e-07 rev/day^2
Epoch rev:           22126
Checksum:              307

Satellite: RS-10/11
Catalog number: 18129
Epoch time:      06341.65342555
Element set:     163
Inclination:      082.9262 deg
RA of node:       199.8415 deg
Eccentricity:    0.0011833
Arg of perigee:   339.3434 deg
Mean anomaly:     020.7239 deg
Mean motion:   13.72781745 rev/day
Decay rate:        4.0e-07 rev/day^2
Epoch rev:           97495
Checksum:              311

Satellite: RS-15
Catalog number: 23439
Epoch time:      06340.96497079
Element set:    0005
Inclination:      064.8201 deg
RA of node:       317.7904 deg
Eccentricity:    0.0164951
Arg of perigee:   224.4741 deg
Mean anomaly:     134.2838 deg
Mean motion:   11.27552104 rev/day
Decay rate:       -3.9e-07 rev/day^2
Epoch rev:           49202
Checksum:              296

Satellite: FO-29
Catalog number: 24278
Epoch time:      06340.92513935
Element set:    0389
Inclination:      098.5223 deg
RA of node:       321.6549 deg
Eccentricity:    0.0350019
Arg of perigee:   221.5881 deg
Mean anomaly:     135.8149 deg
Mean motion:   13.52925407 rev/day
Decay rate:       -9.1e-07 rev/day^2
Epoch rev:           50890
Checksum:              321

Satellite: SO-33
Catalog number: 25509
Epoch time:      06340.82562120
Element set:    0811
Inclination:      031.4301 deg
RA of node:       233.3089 deg
Eccentricity:    0.0355155
Arg of perigee:   185.7060 deg
Mean anomaly:     173.9452 deg
Mean motion:   14.28138000 rev/day
Decay rate:       -6.4e-07 rev/day^2
Epoch rev:           42373
Checksum:              266

Satellite: VO-52
Catalog number: 28650
Epoch time:      06341.73860992
Element set:     498
Inclination:      097.8564 deg
RA of node:       051.5337 deg
Eccentricity:    0.0027876
Arg of perigee:   155.0462 deg
Mean anomaly:     205.2080 deg
Mean motion:   14.81223440 rev/day
Decay rate:        7.9e-07 rev/day^2
Epoch rev:            8607
Checksum:              317

/EX
SB KEPS @ AMSAT  $ORB06341.D
Orbital Elements  06341.MICROS

HR AMSAT ORBITAL ELEMENTS FOR THE MICROSATS
FROM WA5QGD FORT WORTH,TX December 7, 2006
Send SUBSCRIBE KEPS/UNSUBSCRIBE KEPS to majordomo at amsat.org only
BID: ORB06341.D
TO ALL RADIO AMATEURS BT

Satellite: AO-16
Catalog number: 20439
Epoch time:      06341.67602206
Element set:     912
Inclination:      098.1889 deg
RA of node:       341.8829 deg
Eccentricity:    0.0011787
Arg of perigee:   040.8808 deg
Mean anomaly:     319.3242 deg
Mean motion:   14.31742762 rev/day
Decay rate:        4.6e-07 rev/day^2
Epoch rev:           88114
Checksum:              314

Satellite: LO-19
Catalog number: 20442
Epoch time:      06340.55882417
Element set:    0844
Inclination:      098.1823 deg
RA of node:       350.3423 deg
Eccentricity:    0.0012717
Arg of perigee:   043.3570 deg
Mean anomaly:     316.8615 deg
Mean motion:   14.31984356 rev/day
Decay rate:        1.0e-07 rev/day^2
Epoch rev:           88112
Checksum:              288

Satellite: AO-27
Catalog number: 22825
Epoch time:      06340.46235104
Element set:    0563
Inclination:      098.3050 deg
RA of node:       314.0276 deg
Eccentricity:    0.0009220
Arg of perigee:   108.8307 deg
Mean anomaly:     251.3889 deg
Mean motion:   14.29192128 rev/day
Decay rate:       -8.0e-08 rev/day^2
Epoch rev:           68796
Checksum:              300

Satellite: IO-26
Catalog number: 22826
Epoch time:      06340.68275038
Element set:    0256
Inclination:      098.2990 deg
RA of node:       315.3863 deg
Eccentricity:    0.0009735
Arg of perigee:   105.5826 deg
Mean anomaly:     254.6423 deg
Mean motion:   14.29437338 rev/day
Decay rate:        3.6e-07 rev/day^2
Epoch rev:           68807
Checksum:              329

Satellite: PO-28
Catalog number: 22829
Epoch time:      06341.71220674
Element set:     539
Inclination:      098.2891 deg
RA of node:       317.5581 deg
Eccentricity:    0.0010694
Arg of perigee:   081.6182 deg
Mean anomaly:     278.6200 deg
Mean motion:   14.30134401 rev/day
Decay rate:       -3.6e-07 rev/day^2
Epoch rev:           68844
Checksum:              303

Satellite: GO-32
Catalog number: 25397
Epoch time:      06340.65652697
Element set:    0176
Inclination:      098.4449 deg
RA of node:       031.0082 deg
Eccentricity:    0.0002092
Arg of perigee:   077.4563 deg
Mean anomaly:     282.6841 deg
Mean motion:   14.23115778 rev/day
Decay rate:       -7.4e-07 rev/day^2
Epoch rev:           43677
Checksum:              321

Satellite: MO-46
Catalog number: 26548
Epoch time:      06340.74011447
Element set:    0667
Inclination:      064.5582 deg
RA of node:       058.0032 deg
Eccentricity:    0.0036294
Arg of perigee:   223.3747 deg
Mean anomaly:     136.4514 deg
Mean motion:   14.83060824 rev/day
Decay rate:        2.1e-07 rev/day^2
Epoch rev:           33500
Checksum:              280

Satellite: NO-44
Catalog number: 26931
Epoch time:      06340.82025732
Element set:     466
Inclination:      067.0523 deg
RA of node:       283.0072 deg
Eccentricity:    0.0005018
Arg of perigee:   267.3368 deg
Mean anomaly:     092.7177 deg
Mean motion:   14.29462759 rev/day
Decay rate:      -2.00e-06 rev/day^2
Epoch rev:           27060
Checksum:              291

Satellite: SO-50
Catalog number: 27607
Epoch time:      06340.41808627
Element set:     187
Inclination:      064.5575 deg
RA of node:       310.2662 deg
Eccentricity:    0.0035454
Arg of perigee:   071.3175 deg
Mean anomaly:     289.1781 deg
Mean motion:   14.71202464 rev/day
Decay rate:        5.7e-07 rev/day^2
Epoch rev:           21276
Checksum:              297

Satellite: CO-55
Catalog number: 27844
Epoch time:      06341.72542818
Element set:     910
Inclination:      098.7201 deg
RA of node:       347.6412 deg
Eccentricity:    0.0009238
Arg of perigee:   286.0867 deg
Mean anomaly:     073.9275 deg
Mean motion:   14.20476228 rev/day
Decay rate:        8.2e-07 rev/day^2
Epoch rev:           17829
Checksum:              326

Satellite: CO-57
Catalog number: 27848
Epoch time:      06340.52429124
Element set:    0875
Inclination:      098.7191 deg
RA of node:       345.7276 deg
Eccentricity:    0.0009270
Arg of perigee:   293.4287 deg
Mean anomaly:     066.5908 deg
Mean motion:   14.20300301 rev/day
Decay rate:        7.7e-07 rev/day^2
Epoch rev:           17810
Checksum:              315

Satellite: AO-51
Catalog number: 28375
Epoch time:      06340.68325508
Element set:    0695
Inclination:      098.1408 deg
RA of node:       024.6437 deg
Eccentricity:    0.0085197
Arg of perigee:   045.6467 deg
Mean anomaly:     315.1663 deg
Mean motion:   14.40545606 rev/day
Decay rate:        4.4e-07 rev/day^2
Epoch rev:           12800
Checksum:              309

Satellite: CO-56
Catalog number: 28941
Epoch time:      06341.77973192
Element set:     280
Inclination:      098.1572 deg
RA of node:       017.4832 deg
Eccentricity:    0.0254819
Arg of perigee:   226.5530 deg
Mean anomaly:     131.4261 deg
Mean motion:   15.31547386 rev/day
Decay rate:     3.1374e-04 rev/day^2
Epoch rev:            4405
Checksum:              313

Satellite: HO-59
Catalog number: 29484
Epoch time:      06341.37813546
Element set:      95
Inclination:      098.3113 deg
RA of node:       359.0388 deg
Eccentricity:    0.0260672
Arg of perigee:   226.0451 deg
Mean anomaly:     131.9327 deg
Mean motion:   15.36286557 rev/day
Decay rate:     3.1466e-04 rev/day^2
Epoch rev:            1148
Checksum:              326

/EX
SB KEPS @ AMSAT  $ORB06341.W
Orbital Elements  06341.WEATHER

HR AMSAT ORBITAL ELEMENTS FOR WEATHER SATELLITES
FROM WA5QGD FORT WORTH,TX December 7, 2006
Send SUBSCRIBE KEPS/UNSUBSCRIBE KEPS to majordomo at amsat.org only
BID: ORB06341.W
TO ALL RADIO AMATEURS BT

Satellite: NOAA-10
Catalog number: 16969
Epoch time:      06340.59512730
Element set:    0451
Inclination:      098.7550 deg
RA of node:       352.5696 deg
Eccentricity:    0.0012691
Arg of perigee:   012.2345 deg
Mean anomaly:     347.9130 deg
Mean motion:   14.27310902 rev/day
Decay rate:       -7.1e-07 rev/day^2
Epoch rev:           05175
Checksum:              287

Satellite: NOAA-11
Catalog number: 19531
Epoch time:      06340.77585346
Element set:    0414
Inclination:      098.8230 deg
RA of node:       067.2832 deg
Eccentricity:    0.0011329
Arg of perigee:   215.3753 deg
Mean anomaly:     144.6652 deg
Mean motion:   14.14828329 rev/day
Decay rate:        6.1e-07 rev/day^2
Epoch rev:           93894
Checksum:              309

Satellite: NOAA-12
Catalog number: 21263
Epoch time:      06340.84392076
Element set:    0911
Inclination:      098.7422 deg
RA of node:       333.5139 deg
Eccentricity:    0.0012187
Arg of perigee:   308.4580 deg
Mean anomaly:     051.5467 deg
Mean motion:   14.25516866 rev/day
Decay rate:       -5.7e-07 rev/day^2
Epoch rev:           80884
Checksum:              310

